Location: Newark
(45.5000°N, 11.4167°E)
Time: 05:50:13
(UTC+00:00)

Explorer 11/Cluster Stage 4 - Pass Details

Date: 25 August 2019
Orbit: 467 x 1260 km, 28.8° (Epoch: 17 September)

Event Time Altitude Azimuth Distance (km) Brightness Sun altitude
Rises 12:50:24 0° 253° (WSW) 4,202 10.8 49.9°
Reaches altitude 10° 12:54:36 10° 235° (SW) 3,210 10.6 49.4°
Maximum altitude 12:59:19 17° 199° (SSW) 2,657 10.3 48.9°
Drops below altitude 10° 13:03:47 10° 163° (SSE) 3,018 10.0 48.4°
Sets 13:07:34 0° 144° (SE) 3,843 10.2 47.9°
